FENGYUN 1C DEB, 30704

Orbit data source: Space-Track

FENGYUN 1C DEB, 30704 is space debris in SSO originally from a launch on Mon, 10 May 1999 UTC launched from the Taiyaun Space Center, China (TSC). Fengyun 1C debris stems from the Chinese weather satellite Fengyun-1C, which was intentionally destroyed by a Chinese anti-satellite missile in 2007. This event dramatically increased the amount of space debris, with thousands of trackable fragments posing hazards to satellites and human spaceflight. The Fengyun 1C debris cloud has become a focal point in discussions about space sustainability and the need for international regulations to prevent the creation of new debris.

Loading next visibility...
Identifier
30704, 1999-025ARN
Orbit
SSO
Country
Flag of CNCN / PRC
Related business
Manufacturer
Unknown
Mission
Spacecraft
Bus & Motor
Unknown
Mass
Unknown
Launch date (UTC)
1999-05-10 (27 years ago)
Launch vehicle
Unknown
Launch site
Taiyaun Space Center, China (TSC)
Object type
Payload
Rocket body
Debris
Shape & HBR
Unknown shape, 0.1 m
Radar Cross Section
Small (<0.1 m²)

Expand to show TLE details & history
Last TLE update: 10 hours ago

TLE from 10 hours ago
0 FENGYUN 1C DEB
1 30704U 99025ARN 26063.00159389  .00000748  00000-0  50342-3 0  9997
2 30704  98.8777  64.5894 0080996 232.9787 149.6968 14.02128023972507
Epoch: 2026-03-04T00:02Z
TLE epoch observation values (Epoch: 2026-03-04T00:02:17.712Z)
Latitude
22.86497°
Longitude
-101.51393°
Altitude
940.114 km
Speed
7.358 km/s
True Right ascension
04h 03m 19s
True Declination
22° 44' 43"
Sunlit
Object was in daylight at epoch
Visualization orbit readout
Latitude
Unknown
Longitude
Unknown
Altitude
Unknown
Speed
Unknown
Apparent Right ascension
Unknown
Apparent Declination
Unknown
Sunlit
N/A
Visualization observer readout
Local Sidereal Time
14:02:50
Azimuth
Unknown
Elevation
Unknown
Doppler factor
Unknown
Orbital elements
Apogee altitude
942.443 km
Perigee altitude
824.808 km
Semi-major axis
7,261.763 km
Eccentricity
0.0081
Inclination
98.8777°
RAAN
64.5894°
Arg. of periapsis
232.9787°
True anomaly
150.16106°
Mean anomaly
149.6968°
Eccentric anomaly
149.92933°
Mean motion
3.50736 °/min
Orbital period
102.64 mins
BSTAR
0.00050342
Loading maneuver chart data...
Computing Atmospheric mass density...
Loading historical data...
Loading historical data...
Loading historical data...
Loading historical data...
Loading historical data...
Loading historical data...
Loading historical data...

Documentation

Showing up to 5 results
|